Wind_Speed
31 31 30 30 29 29 29 29 28 28 28 28 27 27 27 27 28 28 28 28 29 29 29 29 29 29 29 28 28 28 28 28 28 28 28 27 27 28 28 28 28 27 27 27 27 27 27 27 27 27 27 27 28 28 29 29 30 30 29 28 25 21 19 22 25 26 28 29 30 32 34 35 35 37 38 38 39 38 37 35 34 35 34 34 33 32 33 32
30 30 30 30 29 29 29 28 28 28 27 27 27 27 27 27 27 28 28 28 28 29 29 29 29 28 28 28 28 28 28 28 28 28 28 27 27 28 28 28 28 28 27 27 27 27 27 26 26 26 26 27 27 28 29 29 29 29 29 27 22 18 19 24 27 28 29 29 31 33 35 36 37 38 39 40 41 40 38 36 35 34 34 35 34 34 35 32
29 29 29 29 29 29 29 29 28 28 28 28 27 27 27 27 27 28 28 28 28 28 28 28 28 28 28 28 28 28 28 27 28 28 28 27 28 28 28 28 28 28 27 27 26 26 26 26 26 26 26 27 27 27 28 28 29 29 29 25 18 17 22 25 28 31 31 31 33 35 36 38 39 40 40 41 41 41 39 37 36 36 35 36 35 34 35 32
29 29 29 29 29 29 29 29 29 28 28 28 28 28 28 28 28 28 28 28 28 28 28 28 28 28 28 28 28 28 27 28 28 28 27 27 28 28 28 28 28 28 27 27 26 26 26 26 26 26 26 26 26 27 27 27 28 29 28 22 17 20 24 26 30 33 33 34 34 36 38 39 40 41 42 42 42 42 40 38 37 37 37 36 34 34 34 30
29 29 30 30 30 30 30 30 30 30 29 29 29 29 29 29 29 29 29 29 29 29 28 29 29 29 28 28 28 28 27 28 28 27 27 27 28 28 28 28 28 28 27 27 27 27 26 26 25 25 25 25 26 26 26 27 28 28 26 21 19 22 25 27 31 34 35 36 36 37 39 41 42 42 43 43 43 44 43 40 38 37 36 35 34 34 32 28
28 29 29 30 30 30 31 31 31 31 31 31 30 30 29 29 29 29 29 29 29 29 29 29 29 29 29 28 28 28 28 28 27 27 27 27 28 28 28 28 28 28 27 27 27 27 26 25 25 24 24 25 25 25 26 27 28 28 25 22 19 22 25 28 32 36 38 38 38 39 40 41 42 42 43 43 43 44 43 41 38 36 35 34 34 33 30 26
27 27 28 28 29 29 30 30 31 31 31 32 31 31 31 30 29 29 29 29 29 29 29 29 29 29 29 29 29 28 28 28 27 27 27 27 28 28 28 28 28 28 28 28 27 26 25 25 24 24 25 25 25 25 26 27 28 27 24 21 20 23 26 29 34 38 40 40 40 40 40 40 41 42 43 42 44 44 42 40 38 36 35 34 34 34 29 25
26 26 27 27 28 28 29 29 30 30 31 31 31 31 31 31 30 30 29 29 30 30 30 30 30 30 29 29 29 29 29 28 27 27 27 27 28 27 28 28 28 28 28 28 27 25 24 24 25 25 25 25 25 25 26 27 28 26 23 22 22 25 27 31 35 39 41 41 40 41 39 39 41 43 42 42 43 42 41 40 38 37 35 35 36 33 26 24
26 26 26 26 27 27 28 29 30 30 30 31 31 31 31 31 31 31 30 30 30 30 30 30 30 30 30 30 30 30 29 28 28 28 27 27 27 27 27 27 28 28 28 28 26 25 25 26 26 26 25 25 25 25 26 27 26 24 22 24 24 25 28 31 34 38 41 41 41 41 38 36 41 43 41 41 41 40 40 39 39 38 37 38 36 29 23 25
27 27 27 27 27 27 28 29 29 30 31 31 31 31 31 31 31 31 31 31 31 31 31 31 31 31 31 31 30 31 30 29 28 28 27 27 26 27 27 27 28 28 28 27 27 26 26 27 26 26 25 25 24 24 25 25 25 24 23 24 23 24 27 31 33 36 40 41 41 41 37 35 41 42 39 40 40 39 39 38 39 40 39 39 33 25 22 26
29 29 30 29 30 30 30 30 30 30 30 31 32 32 32 32 33 32 32 32 32 32 32 32 32 32 32 32 31 31 30 29 29 28 27 27 26 27 28 28 29 29 29 28 28 27 27 27 26 25 25 24 23 23 24 24 24 24 23 22 21 23 26 29 30 33 37 40 41 42 38 37 41 41 38 39 39 39 39 39 41 41 39 34 26 22 23 25
32 32 32 32 32 32 33 33 32 32 31 31 31 32 32 33 33 34 34 33 33 33 33 32 32 32 32 32 32 31 30 29 29 28 28 28 28 28 29 30 30 30 29 29 29 29 28 27 26 27 26 24 23 23 24 23 23 23 22 20 19 22 24 26 27 30 35 38 40 43 42 39 39 39 38 39 39 39 40 41 42 40 35 29 23 22 22 24
34 34 34 34 34 34 34 35 35 34 34 33 32 32 32 32 33 34 34 34 34 33 33 32 32 32 32 32 32 31 31 30 29 30 30 29 30 30 31 31 31 31 31 31 31 30 29 28 27 27 25 24 22 23 23 21 21 21 21 18 17 20 21 23 25 28 32 35 38 43 45 42 38 37 38 38 39 39 40 42 40 36 32 26 22 21 21 24
36 36 36 35 35 35 35 36 36 36 36 35 35 34 34 33 34 34 34 34 33 32 32 32 32 31 31 32 33 31 31 31 31 31 31 30 30 30 31 31 31 31 31 32 31 30 30 29 28 26 24 23 22 22 21 21 21 20 19 17 16 18 18 20 25 27 29 31 35 41 45 44 39 37 38 37 37 37 38 38 36 33 30 25 21 20 21 23
36 36 36 36 35 35 35 35 36 36 36 36 36 36 36 36 36 36 35 34 33 32 31 31 31 31 31 32 33 32 31 31 32 31 30 29 29 29 29 29 29 30 31 31 31 31 31 30 28 26 24 23 22 21 21 21 20 19 19 17 16 18 18 19 24 26 27 29 32 38 43 44 41 39 40 39 37 36 36 34 32 31 28 23 20 21 21 22
34 34 34 34 34 34 34 34 34 35 36 36 37 37 37 37 37 37 36 34 33 31 30 30 30 30 30 31 32 33 32 31 31 32 30 29 29 30 29 28 28 29 30 31 31 31 32 30 28 26 24 22 21 21 22 22 20 20 20 18 18 19 18 20 23 25 27 29 31 36 39 41 40 41 42 41 40 38 36 32 31 31 28 23 19 21 21 20
34 33 33 33 33 32 32 32 32 32 33 34 36 36 36 36 36 36 35 35 33 31 30 29 28 29 29 30 31 32 32 31 31 31 31 30 31 30 29 28 28 29 30 31 32 32 32 30 28 26 23 21 21 22 23 22 20 20 20 19 19 18 19 20 22 24 26 28 30 34 36 37 38 41 43 43 43 42 37 34 32 31 28 24 21 21 20 19
34 33 33 32 32 31 31 31 31 31 32 33 33 33 33 33 33 33 33 33 32 31 30 29 29 29 29 30 30 32 33 32 32 31 31 31 31 30 28 28 28 29 30 31 32 32 32 30 28 26 22 21 21 22 23 22 21 21 20 20 19 19 19 20 21 24 27 29 31 33 34 34 34 38 42 44 45 45 41 38 36 33 31 27 24 21 20 19
34 33 32 31 31 30 30 30 30 30 31 32 32 31 31 30 30 30 31 31 30 31 30 30 30 30 30 30 31 32 32 32 31 31 31 32 32 30 29 28 27 28 29 31 32 32 32 31 29 25 20 20 22 23 24 23 22 21 20 20 20 20 19 20 22 25 29 31 32 33 33 33 31 34 38 41 44 45 43 42 39 37 34 30 26 23 20 19
34 33 32 31 30 29 29 29 29 30 31 32 31 29 29 29 29 30 29 29 30 31 31 31 31 30 30 30 31 32 32 31 31 30 31 31 31 30 29 28 27 27 29 30 31 32 32 31 27 21 18 20 22 24 25 25 24 23 22 21 20 20 20 20 23 26 30 32 33 33 34 32 30 32 35 38 42 43 41 41 40 38 36 33 29 24 21 20
33 32 31 30 29 29 28 28 29 30 30 31 30 28 27 28 29 29 29 28 30 31 30 30 31 30 29 30 32 32 31 31 30 30 30 29 30 29 28 27 26 26 27 29 31 31 31 29 24 19 19 21 22 23 25 25 25 24 23 21 19 18 18 21 25 27 30 32 32 33 33 32 31 32 36 38 41 41 39 38 37 35 34 33 29 25 22 22
32 31 30 30 29 28 28 28 29 29 29 30 29 27 27 28 29 29 28 28 29 29 28 27 29 28 28 30 32 33 32 30 29 31 30 29 28 27 27 27 26 25 26 28 30 30 30 27 20 19 20 21 22 23 24 25 25 25 23 21 18 17 18 21 25 27 30 31 29 30 32 32 31 33 36 38 39 39 38 36 34 32 31 30 27 25 22 21
30 29 29 29 28 28 27 27 28 28 29 29 28 27 28 29 29 29 29 27 25 26 27 26 27 27 26 27 29 32 32 28 29 30 29 28 26 26 27 26 25 25 27 28 28 28 28 23 20 21 23 23 23 24 24 25 25 25 23 20 17 17 18 20 23 28 30 28 26 28 32 31 30 31 34 35 35 35 34 33 31 31 30 28 27 25 23 20
29 28 28 28 27 27 26 26 27 27 28 28 27 27 29 29 29 28 28 24 20 22 26 27 26 24 24 26 29 31 30 27 28 29 28 26 25 26 26 25 25 25 26 26 27 27 25 22 23 26 26 24 23 23 24 23 23 23 23 20 16 17 19 20 24 28 29 26 23 27 32 30 28 29 31 32 31 31 31 30 30 30 29 28 27 25 22 18
27 26 26 26 26 26 25 25 26 26 27 27 27 28 29 29 28 27 25 22 18 20 25 27 27 24 23 26 28 29 29 26 25 26 26 24 24 25 25 26 25 23 23 24 26 27 24 23 27 26 24 23 22 22 22 22 22 22 21 18 17 19 21 21 25 28 26 25 24 27 30 28 27 28 29 30 29 29 30 30 28 28 28 27 25 23 19 15
25 24 24 25 25 25 24 24 25 25 26 27 27 28 29 28 28 25 23 21 18 18 22 26 27 26 24 25 26 28 29 23 21 25 26 24 25 26 26 26 23 20 21 23 27 26 22 23 27 25 22 22 21 20 20 20 21 20 19 19 20 22 22 23 26 27 25 26 27 28 28 25 25 26 26 27 28 29 29 29 27 27 26 24 22 21 17 12
24 23 23 24 25 25 24 23 24 25 26 26 27 28 28 28 26 23 22 21 19 19 22 25 26 26 25 25 26 28 27 21 21 26 26 24 25 27 27 24 20 19 20 23 26 22 20 25 26 23 22 22 20 20 21 21 20 19 20 22 23 24 25 26 27 26 26 28 29 28 27 24 23 22 23 25 26 28 28 27 25 23 21 20 21 20 16 13
23 22 23 23 24 24 23 22 23 25 25 26 27 27 27 27 24 21 21 20 18 19 22 24 24 25 24 24 25 26 26 23 23 26 26 26 26 27 26 22 19 18 20 24 23 19 22 27 25 24 25 23 20 21 23 22 21 21 22 23 24 25 27 28 27 24 25 28 29 28 28 25 21 21 23 25 25 24 24 23 22 18 16 17 19 18 16 16
22 22 23 23 22 23 23 22 23 24 25 25 26 26 26 25 22 21 20 19 18 20 23 24 23 23 22 22 24 25 27 26 25 27 29 28 27 27 25 22 21 21 23 23 20 22 27 28 27 28 25 22 22 23 23 21 22 24 25 24 25 26 28 28 27 24 25 28 28 28 29 26 21 24 27 25 23 22 21 21 20 17 16 17 18 17 16 16
21 22 22 22 21 22 22 22 22 23 23 23 24 25 25 23 21 21 19 18 19 21 23 24 23 21 21 21 22 24 27 28 28 29 29 27 27 27 26 25 24 24 24 22 21 25 28 28 28 26 22 22 24 24 22 21 23 25 26 26 25 26 27 28 26 24 24 26 26 28 30 27 23 28 28 24 23 21 21 21 19 18 17 17 17 18 18 18
21 22 21 20 20 21 22 22 21 21 21 22 23 23 23 22 21 19 17 17 20 23 23 23 22 20 20 20 21 23 27 29 30 29 28 27 28 28 27 27 26 25 23 20 21 26 28 27 25 22 21 23 24 23 22 22 23 25 25 25 24 25 27 27 26 26 25 25 25 27 28 26 25 28 27 25 23 22 23 23 22 20 19 18 19 19 19 19
21 21 20 20 20 20 21 22 21 20 20 21 21 22 21 21 19 17 17 19 23 24 24 24 22 19 20 20 20 23 27 30 30 29 27 27 28 27 26 25 24 24 21 17 20 26 27 26 24 21 22 23 23 24 23 22 23 24 23 23 23 25 26 26 27 26 26 26 26 26 26 26 26 26 26 24 23 23 25 26 25 22 20 20 21 21 21 22
20 19 19 19 19 19 20 21 21 20 20 20 20 20 21 20 17 16 18 22 24 23 23 24 22 20 20 21 21 23 27 30 29 29 28 28 27 25 24 25 24 24 22 19 22 27 27 26 24 22 22 22 22 23 23 23 23 22 21 22 23 24 25 27 27 26 27 27 28 27 25 26 26 26 26 24 23 24 25 26 26 24 22 22 22 23 24 25
19 19 19 19 19 18 19 20 20 19 19 19 19 20 20 18 16 18 22 23 23 22 23 24 23 22 22 22 23 25 27 29 30 29 29 28 26 24 24 25 25 24 23 21 24 28 28 26 24 22 22 22 22 22 23 23 23 21 20 21 22 23 24 26 26 26 27 28 29 29 25 25 26 26 26 24 24 25 26 26 26 24 22 22 22 24 25 26
19 19 19 18 17 17 18 19 19 18 17 17 18 18 17 17 18 20 22 23 23 22 23 24 24 25 24 24 25 26 28 29 30 30 30 29 27 25 24 24 24 24 23 23 24 27 28 26 24 22 23 23 23 24 25 25 24 23 23 22 21 21 22 22 22 23 25 27 31 31 27 24 24 25 26 26 25 26 26 26 25 22 21 22 23 26 28 26
18 18 17 16 16 15 16 17 17 16 16 16 17 16 16 17 19 20 22 23 23 22 22 24 26 26 26 26 27 27 28 29 30 30 30 30 28 26 25 25 25 25 25 24 24 26 28 25 24 24 25 24 24 25 25 25 24 24 23 23 20 18 19 18 18 20 23 25 30 32 29 25 24 26 27 27 26 26 25 23 22 21 20 20 21 25 25 23
17 16 15 15 14 14 14 15 16 16 16 16 16 16 17 18 19 20 21 22 21 21 22 24 26 28 28 29 29 29 30 29 29 30 30 30 29 28 27 27 28 27 27 26 26 27 27 25 25 26 26 26 26 25 24 24 25 24 22 22 20 19 19 18 17 19 22 24 26 29 30 27 26 26 27 27 27 26 25 23 22 21 19 18 19 19 19 21
15 14 14 13 13 13 13 14 16 16 16 17 17 17 18 18 19 20 20 20 21 21 22 25 27 29 30 31 31 31 31 30 30 31 31 29 28 27 28 29 30 29 28 28 28 29 27 26 27 29 28 28 28 26 24 24 24 23 21 21 21 19 19 19 18 18 21 23 25 28 29 29 29 28 27 27 27 27 27 26 25 24 23 23 22 21 20 21
13 13 13 12 13 13 14 15 16 16 17 17 18 19 19 20 21 21 21 20 21 21 22 25 28 30 31 32 33 33 33 32 32 32 31 30 27 26 27 30 30 29 29 29 29 29 28 27 29 30 29 30 30 27 26 25 23 23 23 23 22 22 21 21 20 19 20 22 24 27 30 31 32 30 29 28 28 28 27 26 27 27 28 28 27 25 23 22
12 12 12 12 13 14 14 15 15 15 16 16 17 17 18 19 20 21 22 22 22 22 23 25 29 32 34 34 35 34 34 34 34 33 32 31 30 27 27 29 30 29 28 29 29 29 28 28 29 30 31 31 31 29 29 29 25 24 24 24 24 25 24 24 23 22 23 23 24 26 29 31 32 32 31 29 28 28 28 28 29 29 30 30 29 27 24 23
12 12 12 12 13 13 13 13 13 14 14 14 15 15 16 17 19 20 21 22 23 24 25 26 29 33 36 36 36 36 35 35 35 34 32 32 32 30 29 30 30 29 28 28 28 29 29 29 29 31 32 32 32 31 31 31 29 26 25 24 25 25 26 26 26 25 25 25 25 25 26 28 29 31 32 31 30 29 27 27 27 27 27 27 28 27 24 23
11 11 11 12 12 12 12 12 12 13 14 14 15 15 16 17 19 21 21 22 24 25 26 28 29 32 36 38 37 37 36 36 35 34 33 33 33 33 32 31 31 31 29 29 29 29 29 29 30 31 33 32 32 31 31 31 31 29 27 26 25 26 27 27 27 26 25 25 25 25 26 26 26 27 28 29 29 27 25 23 22 22 23 23 24 25 24 24
10 10 10 10 10 11 11 12 12 13 13 14 14 14 15 17 19 22 23 24 25 26 27 29 31 33 35 38 39 38 37 37 36 34 34 33 34 33 32 32 32 32 31 30 30 30 30 30 30 32 34 33 32 32 32 31 31 31 29 27 26 26 26 27 27 26 26 25 25 25 26 26 24 24 24 24 25 25 24 22 20 20 21 21 22 24 23 23
9 9 9 9 9 10 11 11 12 12 13 13 13 14 15 16 18 20 23 25 26 28 29 30 32 34 35 38 40 40 38 37 36 36 35 34 33 32 30 30 30 31 31 31 31 30 30 30 30 31 34 35 34 34 33 32 31 31 31 29 28 26 26 26 27 27 27 27 27 26 26 25 24 23 23 22 22 23 23 21 20 20 20 20 22 24 24 23
9 9 8 8 9 10 10 10 11 12 12 13 13 15 16 16 16 17 19 21 22 26 29 31 33 34 36 38 40 41 41 39 37 36 36 36 35 32 28 26 27 28 29 30 31 30 30 31 31 31 33 35 36 35 33 32 32 32 32 31 30 28 27 27 28 28 28 28 27 27 25 23 22 23 24 23 23 22 21 21 20 20 20 20 21 23 24 23
9 8 8 8 8 9 9 9 10 11 12 13 14 15 16 15 15 16 19 20 21 22 25 29 32 34 36 38 40 42 44 42 39 36 35 35 36 35 31 27 26 26 26 27 29 30 30 32 32 31 32 33 35 35 34 34 34 34 33 32 31 30 29 28 29 29 29 28 28 28 26 23 22 22 23 23 23 21 20 19 19 19 18 18 19 20 21 24
8 7 8 8 8 8 8 9 9 10 11 13 14 14 14 14 15 18 21 23 24 24 24 26 30 34 35 37 38 40 43 43 41 37 35 35 35 33 32 30 28 26 25 24 26 28 30 32 33 32 32 32 34 35 35 35 35 35 34 34 33 32 30 29 29 29 29 29 29 29 27 25 23 22 22 22 21 20 20 20 20 19 18 18 19 19 19 20
7 7 7 7 7 7 8 8 9 10 11 13 12 12 13 15 17 19 20 21 23 25 26 26 29 32 34 35 36 38 39 41 43 40 38 38 36 31 29 29 30 30 28 25 24 25 29 32 33 33 33 33 33 34 35 35 35 35 35 35 34 33 32 30 30 30 30 30 30 30 29 27 25 24 22 22 21 21 20 20 20 20 19 18 18 18 18 16
7 6 6 6 7 7 8 9 9 10 11 11 11 11 13 15 17 17 16 16 19 22 25 26 27 29 32 33 34 35 36 38 41 42 41 39 38 34 30 29 28 29 28 27 25 24 24 28 30 31 32 33 33 34 36 37 37 36 35 36 35 34 33 32 31 31 31 31 30 30 30 30 29 27 25 23 23 22 21 20 20 20 19 18 16 16 15 11
6 5 5 6 6 7 7 7 8 9 10 10 10 11 13 15 17 17 14 14 16 18 21 23 24 25 28 31 32 32 34 36 38 41 42 41 40 39 36 33 31 30 28 27 27 26 23 22 26 28 29 31 32 32 33 36 38 38 37 37 37 36 35 34 33 32 32 31 31 31 31 31 30 30 29 27 25 24 23 22 21 21 20 19 17 16 14 11
5 4 5 6 6 6 6 6 8 9 9 9 9 11 12 14 16 17 14 12 13 13 16 18 20 22 23 26 28 29 31 34 36 38 39 38 40 42 40 37 35 33 30 27 26 28 26 23 23 25 26 27 28 29 29 31 34 38 39 38 38 38 37 36 35 34 33 32 31 31 31 31 30 30 29 29 27 25 24 22 21 21 21 20 19 18 18 17
4 4 5 5 5 5 5 6 8 8 8 8 9 10 11 13 15 16 13 10 9 9 12 15 17 19 21 22 23 24 27 30 34 36 37 35 37 39 39 39 37 33 31 29 26 25 26 25 23 23 24 24 25 26 26 27 30 34 37 39 39 39 38 38 37 37 35 33 32 31 30 30 30 29 29 29 29 27 25 24 23 23 22 21 21 21 21 22
Wind_Direction
248 248 247 247 247 247 247 247 246 246 246 246 246 247 248 248 249 249 250 250 250 251 252 253 256 258 260 261 262 262 262 262 262 262 262 262 262 261 261 262 262 263 264 266 267 269 270 271 272 272 272 271 270 269 269 268 268 267 265 263 258 249 238 232 228 227 231 233 233 234 234 233 231 230 230 230 228 226 228 231 233 236 239 242 245 250 255 257
248 247 246 245 245 245 246 246 246 246 246 246 247 247 248 248 249 250 250 250 251 252 253 254 256 258 260 261 262 262 262 262 263 263 262 262 262 262 262 262 263 263 264 266 267 269 270 272 272 272 271 270 269 268 268 267 267 266 264 261 254 241 230 226 223 223 227 228 228 229 230 230 229 229 230 229 229 227 226 228 231 235 238 242 246 251 256 259
248 247 246 245 244 244 244 245 245 246 246 247 248 248 249 249 250 250 251 251 251 252 253 254 256 258 260 261 262 262 262 263 263 263 263 263 263 263 263 263 263 263 264 265 267 269 271 272 272 272 271 270 270 268 267 267 266 264 262 258 248 233 224 220 220 220 222 224 224 224 225 227 228 228 228 228 229 228 226 226 230 235 239 243 248 252 257 262
250 249 248 246 245 245 245 245 246 246 247 247 248 249 250 250 251 251 251 251 251 252 253 254 255 257 259 260 261 261 262 262 262 263 263 263 263 263 263 262 262 262 263 265 268 270 271 272 272 272 271 270 269 268 266 265 264 262 260 253 236 226 220 216 220 219 220 222 221 222 223 224 226 227 227 228 228 228 228 229 231 236 240 244 248 253 258 264
252 251 251 250 249 248 248 248 248 248 248 248 249 249 250 250 250 251 251 251 251 251 252 253 254 255 257 258 260 261 261 262 262 263 262 262 262 261 262 262 262 262 263 265 268 270 271 272 272 271 270 269 268 265 263 263 263 260 257 248 231 223 217 216 219 217 219 222 219 220 222 223 225 225 227 229 229 230 231 232 234 237 241 244 248 253 258 263
253 253 252 252 252 251 251 251 251 250 250 249 249 249 249 250 250 251 251 251 251 251 251 252 253 254 256 257 259 260 260 261 262 262 262 261 261 261 261 261 262 263 263 265 267 269 270 271 271 270 268 267 265 262 261 262 262 259 253 246 231 220 214 216 217 214 217 220 218 219 222 223 224 224 227 229 230 232 233 234 237 240 243 246 249 252 255 260
253 253 253 253 253 253 253 253 252 252 251 251 250 250 250 250 250 250 251 251 251 251 251 251 252 253 254 256 257 258 259 260 261 262 262 262 262 262 262 262 263 263 264 265 266 267 268 270 270 268 266 264 263 261 261 263 261 256 251 245 232 219 212 215 217 214 217 219 218 221 222 223 224 225 227 229 231 234 235 236 239 242 244 247 249 251 254 256
254 254 255 255 255 255 254 254 253 253 253 252 251 251 250 250 250 250 250 250 251 251 251 251 252 253 254 255 257 257 258 259 260 261 262 263 263 263 263 263 263 263 263 263 264 265 266 267 266 266 264 263 263 260 261 263 261 255 249 244 234 221 211 214 219 215 217 217 218 222 221 222 225 227 227 229 232 234 236 239 240 243 246 249 251 252 253 250
256 255 255 256 256 256 256 255 254 254 253 253 252 251 250 250 250 249 250 250 251 251 252 252 253 254 254 255 256 257 258 259 260 260 261 262 263 264 264 263 263 262 262 261 262 263 264 265 265 266 265 265 265 262 263 264 262 257 251 245 237 225 213 215 220 217 218 217 219 223 220 221 226 227 227 229 231 234 237 239 241 245 250 252 253 253 249 247
258 258 257 257 257 258 258 257 256 255 253 253 252 251 250 249 249 249 250 250 251 251 252 252 253 254 254 254 255 256 257 258 259 260 261 261 262 263 263 262 262 260 260 259 260 261 264 265 266 267 266 266 264 261 263 263 261 257 251 247 240 230 218 216 219 219 220 219 220 221 218 221 228 228 227 229 232 233 236 239 243 248 252 254 257 257 251 251
261 261 260 260 259 259 259 258 257 257 255 253 252 251 250 250 249 249 249 250 250 251 252 253 254 254 254 255 254 255 256 257 259 260 260 260 260 260 261 261 259 258 258 258 259 261 263 264 265 265 263 262 259 258 260 258 258 257 252 248 242 234 223 219 219 219 223 222 221 222 218 221 229 230 228 231 233 234 237 241 246 250 253 258 263 265 259 258
263 263 262 262 261 260 260 259 258 257 256 255 254 253 252 251 251 250 250 250 251 252 252 253 254 255 256 256 255 255 256 256 258 258 258 258 257 257 257 258 259 258 258 257 259 261 261 262 263 262 260 258 256 256 258 257 258 259 257 252 244 238 230 223 221 220 225 225 224 226 224 223 230 233 232 234 235 238 241 245 249 252 256 262 267 271 268 263
265 264 263 263 262 262 261 259 258 256 256 256 256 255 255 254 253 253 252 252 252 253 254 254 255 255 257 257 255 255 256 255 255 256 256 256 255 256 257 259 260 258 257 258 260 260 261 262 261 260 257 254 253 254 257 257 257 258 258 254 246 242 235 229 225 222 225 226 227 230 230 228 231 236 237 238 240 242 245 248 251 254 257 263 270 277 274 267
266 265 264 263 262 262 261 260 258 256 255 255 255 255 255 255 255 255 254 254 254 254 255 255 256 255 257 258 255 254 256 255 255 255 256 258 258 259 260 262 262 260 259 260 260 261 261 261 259 257 252 250 249 250 254 254 253 254 255 252 245 240 236 232 230 225 225 226 228 232 234 231 232 238 239 240 242 244 246 249 252 254 257 264 270 275 274 272
265 264 264 263 262 261 261 260 258 257 256 255 254 254 254 255 255 255 255 256 256 256 257 257 258 257 258 259 256 255 256 256 256 256 257 258 259 259 260 261 262 261 261 261 261 261 260 259 257 254 249 247 247 246 249 251 253 252 250 248 240 235 230 230 232 230 228 227 228 232 235 233 232 236 240 241 242 243 245 247 249 252 255 263 270 272 273 274
264 263 263 263 262 261 260 259 258 257 256 255 254 253 253 254 254 255 256 257 257 259 260 261 262 261 260 260 258 257 258 257 257 257 256 256 257 258 259 260 259 258 259 261 260 260 259 257 255 253 249 245 244 244 245 248 251 251 249 246 240 234 226 226 231 233 231 230 231 233 235 234 232 234 238 240 241 242 242 243 246 249 252 259 269 271 271 270
263 262 262 262 262 261 260 259 258 257 256 255 254 253 253 254 255 257 258 258 259 260 262 264 264 263 262 260 259 258 258 257 256 256 255 255 256 258 259 259 258 258 259 260 259 258 257 255 253 252 248 243 240 241 244 246 250 252 250 246 242 237 228 226 231 235 234 232 234 236 237 236 234 234 236 238 240 240 241 243 245 247 251 260 269 270 267 264
263 262 261 261 260 260 259 259 258 257 256 255 254 254 254 256 258 259 259 260 261 261 261 261 261 260 260 259 257 256 256 255 255 254 254 255 255 256 257 258 258 258 259 259 258 257 255 254 252 249 245 244 243 242 243 244 246 249 250 246 242 237 231 228 230 234 235 234 235 238 239 239 236 237 239 240 241 242 242 243 245 248 252 261 269 267 261 254
263 262 260 259 259 258 257 258 258 258 257 256 255 255 257 258 259 260 260 260 260 260 259 258 258 258 258 257 256 255 254 254 254 254 254 254 255 257 257 258 258 257 258 257 255 255 255 254 251 246 243 247 247 244 242 241 242 246 249 245 240 235 231 229 228 230 233 233 234 237 239 240 237 238 240 242 244 245 244 245 246 248 253 262 267 262 254 246
261 261 260 259 257 256 256 257 257 257 257 257 256 256 258 260 259 258 258 258 258 257 256 255 256 258 258 257 256 255 254 254 253 252 252 254 256 257 258 258 258 258 257 254 252 253 255 254 250 243 242 246 247 245 242 239 239 242 246 246 240 235 231 232 230 230 233 234 234 236 238 239 238 239 241 243 245 247 248 248 249 250 255 262 263 257 248 240
260 259 259 258 257 255 255 255 255 255 256 257 257 257 259 259 258 257 256 255 255 254 255 256 256 259 261 260 258 257 255 254 252 251 251 252 254 255 257 258 258 258 255 253 252 253 254 254 247 237 238 243 245 245 242 239 238 238 243 246 243 237 232 233 235 233 235 236 235 237 240 240 239 240 242 243 246 249 251 252 253 255 258 260 258 253 246 241
258 258 258 257 256 255 254 254 254 254 256 256 258 259 258 256 255 256 254 255 256 255 256 259 258 259 261 260 260 259 258 253 248 248 249 249 252 254 255 256 256 253 250 251 251 252 252 250 241 233 238 240 240 242 240 239 237 236 240 244 244 240 233 234 237 237 238 239 238 239 243 242 240 240 243 245 247 251 253 254 256 255 254 254 251 248 242 238
257 256 256 255 254 254 253 253 254 255 256 257 258 259 257 255 254 254 254 255 261 260 258 259 258 260 260 259 260 260 258 250 243 246 247 246 248 250 251 253 252 250 248 249 249 249 248 244 234 230 233 235 236 239 238 237 237 235 237 242 241 239 236 233 236 238 240 243 240 239 242 243 240 240 243 246 248 250 251 252 251 248 246 244 243 244 238 233
255 254 254 254 254 253 253 254 254 255 257 257 258 258 256 256 254 254 255 257 263 264 261 259 258 259 259 258 258 257 256 249 243 243 242 242 243 245 249 250 251 252 249 246 245 245 242 233 228 228 231 233 235 238 239 238 237 234 236 240 239 239 240 234 235 239 242 245 243 239 240 241 240 240 242 244 245 245 247 246 245 242 240 238 240 242 236 231
254 253 253 253 254 253 254 254 255 256 257 257 258 257 256 256 256 257 259 260 262 263 262 261 259 259 258 257 256 256 256 250 241 240 238 238 241 243 247 249 251 252 248 244 242 241 234 226 226 228 231 235 236 239 241 240 238 234 235 240 238 238 241 236 235 241 244 243 240 239 239 238 238 239 240 242 241 240 241 241 240 237 236 235 236 235 231 229
254 253 253 254 255 255 255 256 256 257 257 257 257 257 257 257 257 259 261 262 262 261 260 260 259 258 255 254 253 252 253 245 234 237 236 232 235 240 243 246 248 249 247 245 243 237 226 223 228 230 231 234 236 239 242 242 239 234 235 238 236 236 239 239 238 240 239 234 234 239 241 236 236 240 241 241 237 234 234 234 231 231 233 231 227 224 222 225
254 254 254 254 256 257 256 256 257 257 257 257 257 257 257 257 258 260 262 263 262 260 258 257 257 256 253 251 249 249 247 238 231 235 233 228 232 237 241 243 244 245 246 244 243 235 223 224 229 231 232 234 236 239 239 238 235 231 232 234 233 234 236 238 238 236 233 228 230 239 243 239 238 239 236 230 225 224 225 225 225 227 228 224 220 219 217 222
254 255 255 255 256 258 258 256 256 256 256 256 256 256 257 258 259 260 260 261 261 260 258 257 256 256 254 252 248 244 240 232 227 229 228 226 229 234 237 238 237 239 241 240 237 227 222 224 226 228 231 233 235 237 236 233 230 228 229 230 231 232 234 236 238 235 231 227 229 237 242 245 240 224 213 211 211 214 217 220 221 218 215 216 219 220 220 227
255 255 255 255 256 258 258 256 254 254 255 255 255 256 256 258 259 259 257 257 257 258 257 257 256 256 256 253 248 241 235 228 222 224 226 227 230 234 235 232 231 233 236 234 226 220 223 223 223 226 228 231 233 234 235 233 230 230 230 229 229 230 233 236 237 234 228 226 229 235 242 247 232 203 198 204 205 207 213 218 219 215 214 218 223 229 231 237
256 256 256 256 256 257 258 255 252 252 253 254 254 254 255 256 256 256 255 255 254 254 254 256 255 254 253 252 248 241 234 227 222 223 226 226 228 232 233 232 232 235 236 229 217 220 226 225 225 226 227 230 232 233 234 233 232 232 232 232 232 234 236 237 237 232 226 225 227 230 238 244 225 200 200 208 208 209 213 215 217 219 222 225 231 237 240 247
256 257 257 258 256 256 256 255 252 250 250 250 251 253 254 254 255 254 253 250 249 249 249 251 251 249 248 248 246 241 236 229 223 222 223 223 226 229 231 233 234 238 241 231 218 222 227 229 230 229 228 231 233 234 234 232 234 234 234 235 237 239 240 240 238 232 228 226 220 222 231 235 223 209 211 217 218 217 215 214 216 216 219 225 231 238 241 245
257 258 258 257 255 253 254 255 253 249 248 248 249 251 253 253 253 253 249 246 246 246 245 247 246 243 243 242 239 236 234 230 224 221 220 221 224 227 230 234 235 238 240 231 221 225 228 229 231 230 229 231 232 234 234 234 235 235 234 235 235 238 240 241 240 233 231 226 212 213 225 227 220 215 217 223 225 222 216 215 217 217 218 221 224 228 232 235
257 257 256 254 253 252 253 254 254 251 249 249 249 250 251 252 251 248 246 244 246 246 244 244 242 238 237 234 232 231 231 231 227 220 217 217 217 218 220 223 225 229 230 220 217 224 227 228 230 230 229 230 232 234 235 235 235 233 233 232 230 233 236 238 239 234 231 223 209 209 219 221 218 216 219 223 224 222 217 216 219 221 224 224 224 227 230 235
255 255 254 253 252 251 252 253 254 253 250 249 250 250 251 252 247 242 243 244 246 245 242 241 238 234 232 228 229 230 230 231 229 221 216 215 212 211 213 217 219 222 223 217 216 220 222 222 224 226 226 227 229 231 231 232 232 229 228 227 228 232 236 239 239 234 230 222 212 211 215 219 219 216 218 220 221 221 220 222 227 229 233 233 234 236 239 243
254 253 253 253 252 250 251 252 253 253 252 250 250 251 252 250 244 241 243 247 247 244 239 238 236 234 230 225 225 227 228 230 230 226 219 215 211 209 211 215 219 222 222 220 218 221 223 220 217 219 221 223 225 226 228 229 229 228 225 225 228 233 238 241 238 234 229 222 216 213 213 218 220 217 218 219 220 222 224 229 236 242 247 246 245 249 250 247
253 253 253 253 251 250 249 251 253 253 253 252 252 252 250 248 246 245 246 248 248 243 238 236 236 234 229 224 223 225 226 229 232 233 228 222 215 211 212 215 219 220 220 220 219 220 223 220 214 216 217 219 222 224 228 229 228 228 226 225 228 233 237 236 232 232 230 226 223 218 214 216 219 219 219 219 221 223 226 233 243 251 257 255 253 257 254 246
252 252 251 251 250 249 248 250 252 253 253 254 254 253 251 249 249 249 249 250 248 244 238 235 235 234 230 225 223 223 225 227 231 236 236 231 224 217 217 219 222 222 219 218 217 218 219 215 214 217 216 216 219 221 225 228 228 228 225 225 228 231 233 231 227 229 231 230 229 225 221 219 221 222 222 221 223 226 229 236 245 251 258 261 261 260 252 245
251 250 249 250 250 249 249 250 252 254 255 255 254 254 253 253 252 251 250 250 249 244 237 234 234 234 232 228 224 223 224 225 228 233 236 236 232 225 220 222 226 226 223 220 218 217 216 210 212 217 216 216 219 220 220 223 224 223 220 221 226 229 231 232 231 231 233 234 233 232 229 227 228 228 227 226 227 230 233 240 245 248 253 259 263 262 255 252
248 248 248 250 252 252 252 253 255 257 258 258 258 257 257 255 254 252 250 247 246 242 237 234 233 233 232 230 227 225 225 226 226 230 234 236 235 230 224 223 226 227 226 225 221 219 217 210 210 215 216 217 220 218 215 215 218 218 216 216 220 222 224 229 232 234 236 237 236 235 234 233 233 234 235 234 234 236 241 246 249 251 252 256 260 263 262 259
246 247 249 251 253 255 256 257 258 259 260 261 260 260 259 258 257 256 253 248 245 240 236 233 232 232 232 232 232 230 228 228 228 229 232 235 236 233 227 224 224 224 226 227 225 222 219 212 209 213 215 216 219 216 211 212 216 218 219 219 220 221 221 224 228 231 233 236 237 236 236 236 237 239 241 243 244 247 252 257 259 257 255 254 256 258 260 259
244 246 250 253 255 257 257 257 259 260 261 262 263 263 262 261 260 259 256 251 246 241 236 233 231 231 232 232 233 234 233 231 231 230 230 233 235 234 230 226 224 223 224 227 228 225 222 216 210 211 214 215 217 216 212 214 217 219 221 222 223 223 223 224 228 231 234 236 237 238 238 238 238 241 243 246 249 254 260 263 262 258 254 252 252 253 255 257
244 248 250 252 254 254 254 256 258 259 261 263 266 267 266 265 264 261 258 252 248 243 238 235 232 231 231 231 231 233 234 234 234 233 231 232 234 234 232 229 226 225 223 225 229 228 224 219 212 211 214 215 216 216 214 215 218 220 221 222 224 225 226 227 229 233 237 240 242 243 243 242 241 242 244 246 249 253 257 260 257 251 248 248 250 252 254 254
245 247 247 249 251 254 259 264 266 266 268 271 273 274 273 270 267 264 260 255 250 246 241 237 234 232 230 230 230 231 234 236 236 235 234 234 235 235 235 231 228 227 226 226 228 229 227 222 216 213 215 216 216 217 216 216 218 220 221 222 224 226 228 229 231 233 237 240 242 245 247 247 245 245 246 246 248 249 251 253 250 247 246 246 249 252 253 253
241 241 244 249 256 263 270 273 275 276 279 282 283 284 284 281 276 271 266 260 254 249 243 238 235 233 231 229 229 230 233 236 236 236 235 237 237 236 235 234 232 230 228 228 229 229 227 224 220 218 217 217 218 218 219 219 218 219 221 224 226 228 229 230 230 232 234 236 238 241 246 247 244 241 241 241 243 244 245 247 248 248 248 247 248 251 253 256
235 239 248 257 266 273 276 276 276 279 282 285 285 285 286 285 282 278 274 270 263 256 249 241 236 234 232 230 228 228 230 232 234 234 233 235 238 238 235 234 234 232 230 230 231 230 227 224 222 223 221 220 222 222 222 222 222 222 223 225 228 230 231 231 231 232 234 236 237 240 243 246 242 237 235 236 238 240 243 246 248 249 250 250 251 254 255 257
234 245 255 263 271 278 281 279 278 278 281 284 282 280 281 281 278 276 276 273 268 262 255 247 239 235 233 232 229 228 229 230 231 232 232 233 235 239 239 236 235 235 233 231 231 230 228 225 224 226 226 225 225 226 226 225 226 226 227 228 230 232 233 233 234 234 235 237 238 240 242 244 242 238 235 236 238 242 245 247 248 251 253 256 260 263 261 258
238 251 259 266 274 282 283 281 281 284 290 292 287 282 281 280 278 278 277 274 267 260 254 248 241 236 234 233 231 229 230 232 232 231 232 234 234 235 238 237 238 242 242 239 236 232 230 228 227 229 231 230 229 230 229 228 228 228 229 230 232 233 235 236 238 237 237 237 239 240 242 243 242 240 238 239 242 244 247 249 250 254 257 258 261 266 269 266
243 253 262 271 281 289 288 287 293 299 302 301 295 287 284 282 284 285 283 279 273 263 254 248 242 237 234 233 233 231 230 233 235 233 232 234 235 234 236 238 241 245 245 244 244 240 235 232 229 230 233 234 233 232 232 232 232 232 232 232 233 234 235 237 240 241 241 240 240 241 242 243 242 242 241 243 246 247 249 251 252 255 257 258 261 267 274 273
243 252 263 275 285 292 291 294 303 309 309 305 294 285 283 285 289 289 285 284 283 269 254 247 242 237 234 232 233 233 230 230 233 234 232 232 233 235 237 240 242 244 245 244 245 245 242 238 234 232 234 238 239 238 235 233 234 235 235 234 234 234 235 237 239 243 245 245 244 244 244 244 244 244 244 245 246 249 253 258 260 259 258 259 262 268 268 259
242 252 263 274 283 288 290 299 311 317 317 310 296 288 289 293 295 293 287 289 291 274 251 243 241 238 234 232 231 232 231 230 231 232 233 234 236 238 240 244 246 247 248 248 247 247 246 243 239 236 236 239 242 243 239 234 233 235 237 238 238 237 237 238 239 241 244 247 249 249 249 248 247 247 248 248 250 252 256 260 262 260 258 257 257 259 254 239
241 257 268 277 286 291 297 313 322 324 325 317 304 297 298 301 304 302 296 297 298 276 247 240 239 236 234 233 231 231 231 230 230 231 232 235 238 239 241 246 250 250 250 250 249 246 244 242 240 238 238 239 241 242 242 238 234 234 236 239 240 240 240 240 240 241 242 246 249 250 251 253 252 251 251 252 254 254 255 256 258 257 256 254 252 251 247 241
243 264 275 288 300 303 315 330 330 330 337 332 316 305 304 308 314 314 306 300 303 279 249 240 237 234 232 230 230 230 230 231 231 230 230 232 236 237 239 242 246 247 247 248 247 242 238 238 239 237 237 238 238 237 238 239 238 238 238 238 239 240 241 241 242 242 242 243 245 249 251 251 252 252 252 253 255 255 256 258 258 257 258 257 256 255 252 249
Height
5736 5736 5737 5738 5739 5740 5741 5742 5743 5743 5744 5745 5746 5747 5748 5749 5750 5751 5752 5752 5753 5754 5754 5755 5756 5757 5758 5759 5759 5760 5761 5762 5762 5763 5763 5764 5764 5764 5764 5765 5766 5766 5767 5768 5768 5768 5769 5769 5769 5770 5770 5770 5770 5771 5771 5772 5773 5773 5774 5775 5777 5780 5781 5782 5781 5781 5782 5785 5786 5786 5787 5788 5789 5790 5791 5792 5793 5794 5795 5797 5798 5799 5800 5801 5803 5804 5805 5807
5733 5734 5734 5735 5736 5737 5738 5739 5740 5741 5741 5742 5743 5744 5744 5745 5746 5747 5748 5749 5750 5750 5751 5752 5753 5754 5755 5755 5756 5757 5758 5759 5759 5759 5760 5761 5761 5761 5761 5762 5763 5763 5764 5764 5765 5765 5766 5766 5766 5767 5767 5767 5767 5767 5768 5769 5770 5770 5771 5772 5775 5778 5779 5778 5778 5778 5779 5782 5782 5783 5784 5785 5786 5787 5789 5789 5790 5791 5792 5793 5795 5796 5798 5799 5801 5802 5803 5805
5730 5731 5732 5733 5733 5734 5735 5736 5737 5737 5738 5739 5740 5741 5742 5742 5743 5744 5745 5746 5746 5747 5748 5749 5749 5750 5751 5752 5753 5754 5755 5755 5756 5756 5757 5758 5758 5758 5758 5759 5760 5760 5761 5761 5762 5762 5763 5763 5763 5763 5764 5764 5764 5764 5764 5766 5766 5767 5768 5770 5773 5775 5775 5775 5775 5775 5776 5778 5779 5780 5781 5782 5783 5784 5786 5787 5787 5789 5790 5791 5792 5794 5796 5797 5799 5801 5801 5803
5727 5728 5729 5730 5731 5731 5732 5733 5734 5735 5735 5736 5737 5738 5739 5740 5740 5741 5742 5742 5743 5743 5744 5745 5746 5747 5748 5749 5750 5751 5752 5752 5753 5754 5754 5755 5755 5755 5755 5756 5757 5757 5758 5758 5759 5759 5760 5760 5760 5760 5760 5761 5761 5761 5761 5762 5763 5763 5765 5767 5770 5771 5771 5772 5772 5772 5773 5775 5776 5777 5778 5779 5780 5781 5782 5784 5785 5786 5787 5788 5790 5792 5794 5796 5798 5799 5800 5801
5724 5725 5726 5727 5728 5729 5729 5730 5731 5732 5732 5733 5734 5735 5736 5737 5737 5738 5739 5739 5740 5740 5741 5742 5743 5744 5745 5746 5747 5748 5749 5749 5750 5751 5751 5752 5752 5752 5752 5753 5754 5754 5755 5755 5756 5756 5756 5757 5757 5757 5757 5758 5758 5758 5758 5759 5759 5760 5762 5765 5767 5768 5769 5770 5770 5771 5771 5772 5774 5774 5775 5777 5778 5779 5780 5782 5783 5784 5785 5787 5789 5792 5794 5795 5797 5798 5799 5799
5721 5722 5723 5724 5725 5725 5726 5727 5728 5729 5729 5730 5731 5732 5733 5733 5734 5735 5736 5736 5737 5737 5738 5739 5740 5741 5742 5743 5744 5745 5746 5746 5747 5748 5748 5749 5748 5749 5749 5750 5751 5751 5752 5753 5753 5753 5754 5754 5754 5754 5754 5754 5754 5755 5755 5756 5756 5758 5759 5762 5764 5766 5767 5768 5768 5769 5769 5770 5771 5771 5772 5774 5775 5776 5778 5780 5781 5782 5784 5786 5789 5791 5793 5794 5795 5796 5796 5796
5719 5719 5720 5721 5722 5722 5723 5724 5725 5726 5726 5727 5728 5729 5730 5730 5731 5732 5733 5733 5734 5734 5735 5736 5737 5738 5739 5740 5741 5742 5742 5743 5744 5744 5745 5745 5745 5746 5747 5747 5748 5748 5749 5750 5750 5750 5751 5751 5751 5751 5751 5751 5751 5752 5752 5753 5754 5755 5757 5759 5762 5763 5764 5765 5765 5765 5766 5767 5768 5769 5771 5772 5773 5775 5776 5778 5779 5780 5783 5785 5788 5790 5791 5792 5792 5793 5794 5795
5716 5717 5717 5718 5719 5719 5720 5721 5721 5722 5723 5724 5725 5726 5726 5727 5728 5729 5730 5730 5731 5732 5732 5733 5734 5735 5736 5737 5738 5739 5739 5740 5741 5741 5742 5742 5742 5743 5744 5744 5745 5745 5746 5746 5747 5748 5748 5748 5748 5748 5748 5748 5748 5749 5749 5750 5751 5753 5755 5757 5758 5760 5762 5762 5762 5763 5764 5766 5767 5768 5770 5771 5771 5773 5775 5777 5778 5780 5782 5785 5787 5788 5789 5789 5789 5791 5793 5793
5713 5714 5714 5715 5716 5716 5717 5718 5718 5719 5720 5721 5722 5723 5723 5724 5725 5726 5727 5727 5728 5729 5729 5730 5731 5732 5733 5734 5735 5735 5736 5737 5738 5738 5739 5739 5740 5740 5741 5741 5742 5742 5743 5743 5744 5744 5745 5745 5745 5745 5745 5745 5746 5746 5747 5747 5749 5751 5753 5754 5755 5757 5759 5760 5760 5762 5764 5766 5766 5767 5769 5769 5769 5771 5773 5775 5777 5779 5781 5783 5785 5786 5786 5787 5788 5791 5791 5789
5710 5711 5712 5712 5713 5713 5714 5715 5715 5716 5717 5718 5719 5719 5720 5721 5722 5723 5724 5724 5725 5726 5726 5727 5728 5729 5729 5730 5731 5732 5733 5734 5734 5735 5735 5736 5737 5737 5737 5738 5739 5739 5739 5740 5741 5741 5742 5742 5742 5742 5743 5743 5744 5744 5744 5745 5746 5748 5750 5751 5753 5755 5757 5758 5759 5761 5763 5765 5765 5766 5768 5767 5766 5769 5772 5774 5776 5778 5780 5782 5782 5783 5784 5786 5788 5789 5789 5787
5708 5708 5709 5709 5710 5710 5711 5711 5712 5713 5714 5714 5715 5716 5717 5718 5719 5720 5720 5721 5722 5722 5723 5724 5724 5725 5726 5727 5728 5728 5730 5731 5731 5732 5732 5733 5734 5734 5734 5735 5735 5736 5736 5737 5738 5738 5739 5739 5739 5740 5740 5741 5741 5742 5742 5743 5744 5745 5747 5750 5752 5753 5755 5756 5758 5760 5761 5763 5764 5764 5766 5766 5765 5768 5771 5772 5774 5776 5778 5780 5780 5781 5783 5786 5787 5787 5786 5785
5704 5705 5705 5706 5706 5707 5707 5708 5709 5710 5710 5711 5712 5713 5714 5715 5715 5716 5717 5717 5718 5719 5719 5720 5721 5722 5723 5723 5724 5725 5727 5728 5728 5728 5729 5729 5730 5731 5731 5732 5732 5733 5734 5734 5735 5735 5736 5736 5737 5737 5738 5739 5740 5740 5740 5741 5742 5743 5745 5748 5750 5751 5753 5755 5757 5759 5760 5762 5762 5762 5763 5764 5765 5767 5770 5771 5773 5775 5777 5778 5778 5780 5783 5784 5785 5784 5784 5783
5701 5701 5702 5702 5703 5703 5704 5704 5705 5706 5707 5708 5709 5710 5710 5711 5712 5712 5713 5714 5714 5715 5716 5716 5717 5718 5719 5719 5721 5723 5723 5724 5725 5725 5725 5726 5727 5727 5728 5729 5730 5730 5730 5731 5732 5732 5733 5734 5734 5735 5736 5737 5737 5738 5738 5740 5741 5742 5743 5746 5748 5749 5751 5753 5755 5756 5757 5759 5760 5759 5760 5763 5765 5766 5768 5770 5772 5774 5775 5776 5777 5779 5781 5782 5782 5782 5782 5781
5697 5698 5698 5698 5699 5699 5700 5701 5701 5702 5703 5704 5705 5706 5707 5708 5708 5709 5709 5710 5711 5712 5712 5713 5714 5715 5716 5715 5717 5720 5720 5721 5721 5722 5723 5724 5724 5725 5726 5727 5727 5727 5727 5728 5729 5730 5731 5731 5732 5733 5734 5734 5735 5736 5737 5738 5739 5740 5741 5744 5746 5747 5749 5751 5752 5753 5754 5756 5757 5756 5756 5761 5764 5764 5765 5768 5770 5772 5773 5774 5775 5777 5779 5780 5780 5780 5780 5779
5693 5694 5694 5695 5695 5695 5696 5697 5697 5698 5699 5700 5700 5702 5703 5704 5704 5705 5706 5706 5707 5708 5709 5710 5710 5712 5712 5712 5714 5716 5717 5718 5718 5719 5721 5721 5721 5722 5723 5724 5724 5724 5724 5725 5726 5727 5728 5729 5729 5730 5731 5732 5733 5734 5735 5736 5737 5738 5740 5742 5743 5744 5746 5748 5748 5749 5751 5752 5753 5752 5752 5757 5761 5762 5762 5765 5767 5769 5771 5771 5772 5775 5777 5778 5778 5778 5778 5778
5690 5690 5690 5691 5691 5692 5692 5693 5693 5694 5695 5695 5696 5697 5699 5699 5700 5701 5702 5703 5704 5705 5706 5707 5708 5709 5709 5710 5711 5712 5714 5715 5716 5717 5718 5717 5718 5719 5720 5720 5721 5721 5721 5723 5724 5725 5725 5726 5727 5728 5729 5730 5732 5732 5733 5734 5735 5736 5738 5739 5741 5742 5744 5745 5745 5746 5748 5749 5749 5749 5749 5752 5757 5758 5759 5761 5764 5766 5768 5769 5770 5773 5774 5775 5776 5776 5776 5776
5686 5686 5686 5687 5688 5688 5689 5689 5690 5690 5691 5691 5692 5693 5694 5696 5697 5698 5699 5700 5701 5702 5703 5704 5704 5706 5705 5706 5708 5709 5710 5711 5712 5713 5714 5714 5715 5716 5717 5717 5718 5718 5718 5720 5721 5722 5723 5724 5724 5725 5727 5728 5730 5730 5731 5732 5734 5734 5735 5737 5738 5740 5742 5742 5743 5743 5744 5745 5745 5745 5746 5749 5753 5755 5756 5758 5760 5762 5765 5766 5768 5770 5771 5772 5774 5775 5775 5775
5682 5682 5682 5683 5684 5685 5685 5685 5686 5687 5687 5687 5688 5689 5691 5692 5694 5695 5696 5697 5697 5698 5699 5700 5700 5701 5701 5702 5704 5705 5706 5707 5708 5710 5710 5710 5711 5713 5713 5714 5715 5715 5716 5717 5718 5719 5720 5721 5722 5723 5725 5726 5727 5728 5729 5731 5732 5732 5732 5734 5736 5737 5739 5740 5741 5741 5741 5742 5742 5742 5744 5747 5750 5752 5753 5755 5756 5760 5763 5764 5765 5768 5769 5770 5772 5773 5774 5773
5678 5678 5679 5680 5680 5681 5682 5682 5683 5683 5683 5683 5684 5686 5688 5690 5691 5692 5692 5693 5694 5694 5694 5695 5696 5697 5697 5698 5699 5701 5702 5703 5704 5706 5706 5707 5708 5710 5710 5711 5712 5712 5713 5714 5715 5716 5717 5718 5719 5721 5724 5725 5725 5726 5727 5728 5729 5729 5730 5732 5733 5735 5737 5738 5739 5738 5737 5738 5739 5740 5741 5744 5747 5749 5751 5752 5754 5757 5760 5761 5763 5765 5767 5769 5771 5772 5773 5772
5674 5675 5676 5676 5677 5678 5678 5679 5679 5680 5680 5680 5681 5683 5685 5687 5688 5688 5689 5690 5690 5689 5690 5691 5692 5693 5693 5694 5696 5697 5698 5699 5701 5702 5703 5704 5706 5707 5708 5708 5709 5710 5710 5711 5712 5713 5714 5715 5717 5720 5722 5722 5722 5723 5724 5725 5726 5727 5728 5729 5731 5733 5735 5736 5736 5735 5734 5735 5737 5738 5739 5742 5745 5746 5747 5749 5750 5753 5756 5758 5760 5763 5765 5767 5769 5770 5771 5770
5671 5672 5672 5673 5673 5674 5675 5676 5676 5676 5677 5677 5678 5680 5682 5683 5684 5685 5685 5686 5685 5685 5686 5687 5689 5690 5690 5690 5692 5694 5695 5696 5697 5698 5700 5701 5702 5704 5705 5706 5707 5707 5708 5708 5709 5710 5711 5713 5716 5719 5719 5719 5720 5720 5721 5723 5724 5725 5726 5728 5729 5732 5734 5734 5733 5732 5731 5732 5735 5736 5737 5740 5742 5744 5744 5745 5747 5751 5754 5755 5758 5761 5763 5765 5766 5767 5768 5768
5667 5668 5669 5670 5670 5671 5672 5673 5673 5673 5673 5673 5675 5677 5679 5680 5680 5681 5681 5682 5681 5682 5684 5685 5686 5688 5687 5687 5689 5691 5692 5693 5693 5694 5696 5698 5699 5701 5702 5703 5704 5704 5704 5705 5706 5707 5708 5711 5715 5716 5716 5717 5717 5718 5719 5720 5722 5723 5725 5726 5728 5730 5731 5731 5731 5730 5729 5730 5734 5735 5735 5737 5740 5741 5742 5742 5745 5748 5750 5752 5755 5758 5759 5762 5763 5764 5766 5766
5664 5665 5666 5666 5667 5668 5669 5669 5670 5670 5670 5670 5672 5674 5675 5676 5677 5677 5677 5678 5678 5679 5681 5682 5683 5684 5683 5684 5686 5687 5688 5689 5689 5691 5693 5695 5696 5697 5698 5700 5700 5700 5701 5702 5703 5704 5706 5710 5712 5713 5713 5714 5715 5715 5717 5718 5719 5721 5723 5724 5727 5728 5728 5729 5729 5727 5727 5729 5732 5733 5733 5735 5737 5738 5739 5740 5743 5745 5747 5750 5752 5754 5756 5759 5760 5761 5763 5764
5660 5661 5662 5663 5664 5665 5666 5666 5667 5667 5667 5668 5669 5670 5671 5672 5673 5673 5674 5676 5676 5676 5677 5678 5680 5680 5679 5681 5682 5683 5684 5686 5687 5688 5690 5692 5693 5694 5696 5697 5697 5698 5699 5700 5701 5701 5704 5708 5708 5708 5710 5711 5712 5714 5715 5716 5718 5719 5721 5723 5725 5725 5726 5727 5726 5724 5725 5728 5730 5731 5730 5732 5735 5736 5737 5738 5740 5742 5744 5747 5749 5751 5753 5756 5758 5759 5760 5761
5657 5658 5659 5660 5660 5661 5662 5663 5664 5664 5664 5665 5666 5666 5667 5668 5669 5669 5671 5672 5672 5673 5674 5675 5676 5676 5676 5678 5679 5679 5681 5683 5684 5685 5688 5689 5690 5691 5692 5693 5694 5696 5696 5697 5698 5699 5702 5705 5705 5706 5708 5709 5711 5712 5713 5714 5716 5717 5719 5721 5723 5723 5723 5724 5723 5722 5724 5726 5727 5727 5728 5730 5732 5733 5734 5736 5737 5739 5742 5744 5747 5749 5751 5753 5756 5757 5758 5759
5654 5655 5656 5656 5657 5657 5659 5660 5660 5661 5661 5662 5662 5662 5663 5664 5665 5666 5667 5668 5669 5670 5671 5671 5671 5672 5673 5674 5675 5675 5677 5680 5682 5682 5684 5686 5686 5688 5689 5690 5692 5693 5694 5695 5695 5697 5700 5702 5702 5704 5706 5707 5709 5710 5711 5712 5713 5716 5718 5719 5719 5720 5720 5720 5720 5720 5722 5724 5724 5724 5726 5728 5730 5731 5732 5734 5735 5737 5740 5743 5745 5747 5749 5752 5754 5755 5755 5756
5651 5652 5652 5653 5653 5654 5655 5657 5657 5657 5657 5658 5659 5659 5660 5661 5662 5663 5664 5665 5666 5666 5667 5667 5668 5668 5669 5670 5671 5672 5674 5677 5678 5679 5681 5683 5684 5685 5686 5688 5690 5691 5692 5692 5692 5696 5699 5699 5700 5702 5704 5705 5707 5708 5709 5710 5711 5714 5715 5715 5716 5717 5717 5717 5717 5718 5720 5721 5722 5723 5724 5726 5728 5729 5730 5731 5734 5736 5738 5741 5743 5746 5748 5750 5752 5752 5753 5754
5648 5649 5649 5649 5650 5650 5652 5653 5654 5654 5654 5655 5656 5656 5657 5657 5659 5660 5660 5661 5662 5663 5663 5664 5664 5665 5666 5667 5668 5669 5671 5673 5675 5676 5678 5679 5680 5682 5683 5686 5688 5689 5689 5689 5691 5695 5695 5696 5698 5699 5700 5702 5705 5706 5706 5707 5709 5710 5710 5711 5712 5713 5713 5713 5714 5716 5718 5719 5721 5722 5722 5723 5726 5727 5729 5730 5732 5735 5738 5740 5742 5745 5747 5748 5749 5750 5751 5751
5645 5645 5645 5646 5647 5647 5648 5650 5650 5651 5651 5652 5652 5653 5654 5655 5656 5657 5657 5658 5659 5659 5660 5660 5661 5663 5664 5665 5666 5667 5668 5670 5671 5672 5674 5676 5678 5679 5681 5683 5684 5685 5685 5687 5690 5692 5691 5693 5695 5696 5698 5701 5702 5702 5703 5706 5707 5707 5707 5708 5709 5710 5710 5711 5713 5714 5715 5717 5720 5721 5721 5722 5724 5726 5728 5729 5732 5735 5737 5739 5741 5743 5745 5746 5747 5748 5749 5750
5641 5642 5642 5643 5644 5645 5645 5646 5647 5648 5648 5649 5649 5650 5651 5652 5653 5653 5654 5656 5656 5656 5656 5657 5658 5660 5661 5662 5663 5664 5665 5666 5668 5669 5671 5673 5675 5676 5678 5679 5680 5681 5682 5685 5688 5689 5689 5691 5692 5694 5698 5699 5699 5700 5702 5704 5704 5704 5705 5706 5707 5708 5709 5710 5711 5712 5712 5715 5718 5720 5719 5720 5723 5725 5727 5728 5731 5733 5735 5737 5739 5742 5744 5745 5746 5747 5748 5749
5638 5638 5639 5640 5641 5642 5642 5642 5644 5645 5645 5646 5646 5647 5648 5649 5650 5651 5652 5653 5652 5653 5653 5654 5656 5657 5659 5660 5660 5662 5663 5663 5665 5666 5668 5671 5672 5673 5675 5676 5678 5679 5681 5684 5686 5687 5687 5689 5691 5694 5696 5696 5697 5698 5700 5701 5702 5703 5704 5705 5706 5707 5707 5708 5709 5710 5711 5714 5717 5718 5717 5719 5722 5724 5725 5727 5729 5731 5733 5735 5737 5740 5741 5743 5744 5745 5746 5747
5635 5636 5637 5637 5638 5639 5639 5639 5641 5642 5643 5643 5643 5644 5645 5646 5647 5648 5649 5649 5649 5649 5650 5651 5653 5655 5656 5657 5658 5659 5660 5661 5662 5664 5666 5667 5669 5671 5673 5674 5676 5678 5680 5683 5685 5685 5685 5688 5690 5693 5693 5694 5695 5696 5698 5699 5700 5701 5702 5703 5704 5704 5705 5706 5707 5708 5710 5712 5715 5716 5716 5718 5720 5722 5723 5725 5727 5729 5731 5733 5735 5737 5739 5740 5741 5742 5743 5742
5632 5633 5634 5634 5635 5636 5636 5637 5638 5639 5640 5640 5641 5641 5642 5643 5645 5645 5645 5645 5646 5647 5648 5649 5651 5652 5654 5655 5655 5656 5657 5658 5660 5661 5663 5664 5666 5668 5670 5671 5673 5675 5677 5680 5682 5681 5683 5686 5688 5690 5691 5692 5694 5695 5696 5698 5699 5700 5700 5701 5701 5702 5702 5703 5705 5706 5708 5711 5713 5714 5715 5716 5718 5720 5722 5724 5726 5727 5729 5731 5733 5735 5737 5738 5738 5738 5737 5737
5630 5631 5631 5632 5633 5634 5634 5634 5635 5636 5637 5637 5638 5638 5639 5640 5642 5642 5641 5642 5643 5645 5646 5647 5648 5649 5651 5653 5653 5654 5655 5656 5658 5659 5660 5662 5664 5666 5667 5668 5670 5672 5674 5677 5678 5679 5680 5683 5685 5688 5689 5690 5692 5694 5695 5696 5697 5698 5698 5699 5700 5700 5701 5702 5703 5705 5706 5709 5711 5712 5713 5714 5716 5719 5721 5723 5725 5726 5728 5730 5732 5734 5736 5736 5736 5735 5735 5737
5628 5628 5629 5630 5630 5631 5631 5632 5632 5633 5634 5634 5635 5636 5637 5638 5638 5638 5639 5639 5641 5642 5643 5644 5646 5647 5649 5651 5651 5652 5653 5654 5655 5657 5658 5660 5662 5664 5665 5667 5669 5670 5672 5674 5676 5677 5678 5680 5683 5685 5687 5688 5690 5691 5692 5693 5694 5695 5696 5697 5698 5699 5700 5700 5702 5703 5704 5706 5708 5710 5711 5712 5715 5718 5720 5722 5724 5725 5727 5729 5731 5733 5734 5735 5735 5734 5735 5738
5625 5626 5627 5627 5628 5629 5629 5629 5630 5630 5631 5632 5632 5633 5634 5634 5634 5635 5636 5637 5639 5640 5641 5642 5643 5644 5646 5648 5649 5650 5651 5652 5654 5655 5657 5658 5660 5662 5663 5664 5666 5667 5670 5672 5674 5675 5677 5679 5681 5683 5684 5686 5688 5688 5689 5691 5692 5693 5694 5696 5697 5698 5698 5699 5700 5702 5703 5704 5706 5708 5709 5711 5713 5716 5718 5721 5723 5724 5726 5727 5729 5731 5731 5732 5732 5733 5735 5736
5623 5624 5625 5625 5626 5626 5627 5627 5628 5628 5629 5629 5630 5630 5631 5631 5632 5633 5634 5635 5636 5638 5639 5640 5640 5642 5643 5645 5647 5648 5649 5651 5652 5653 5654 5656 5658 5660 5661 5662 5663 5665 5667 5669 5671 5672 5675 5677 5679 5680 5682 5684 5685 5686 5688 5689 5690 5691 5693 5695 5695 5696 5696 5697 5699 5700 5701 5702 5704 5706 5708 5710 5712 5714 5716 5719 5721 5723 5724 5726 5728 5728 5728 5729 5729 5730 5732 5733
5622 5622 5623 5623 5624 5624 5625 5625 5625 5626 5626 5627 5627 5628 5628 5629 5629 5630 5631 5633 5634 5635 5637 5637 5638 5639 5641 5642 5644 5645 5646 5648 5650 5650 5651 5653 5656 5658 5659 5660 5661 5663 5664 5666 5668 5670 5672 5675 5676 5678 5680 5681 5682 5684 5686 5687 5688 5689 5691 5692 5693 5694 5695 5696 5697 5699 5700 5701 5702 5705 5707 5708 5710 5712 5715 5717 5719 5721 5723 5724 5725 5726 5726 5726 5725 5726 5728 5729
5620 5620 5621 5621 5621 5622 5622 5623 5623 5623 5624 5624 5625 5625 5626 5626 5627 5628 5629 5630 5631 5633 5634 5635 5636 5637 5638 5640 5641 5643 5644 5645 5647 5648 5649 5651 5653 5655 5657 5658 5660 5661 5662 5664 5665 5667 5670 5673 5674 5675 5677 5678 5679 5682 5684 5684 5686 5687 5688 5689 5690 5692 5693 5694 5696 5697 5698 5700 5701 5703 5704 5706 5708 5711 5713 5715 5717 5719 5720 5721 5722 5722 5723 5723 5723 5724 5725 5726
5618 5619 5619 5619 5619 5620 5620 5621 5621 5621 5621 5622 5622 5623 5623 5623 5624 5625 5626 5627 5628 5629 5631 5632 5633 5634 5635 5637 5638 5640 5642 5643 5644 5645 5647 5649 5651 5653 5655 5656 5657 5659 5660 5662 5663 5665 5667 5670 5672 5673 5674 5676 5677 5679 5681 5682 5683 5685 5686 5687 5688 5690 5691 5692 5693 5695 5696 5697 5699 5700 5702 5704 5706 5708 5711 5713 5715 5716 5717 5718 5719 5719 5720 5721 5721 5722 5722 5723
5617 5617 5617 5617 5617 5618 5618 5619 5619 5619 5619 5620 5620 5620 5621 5621 5621 5622 5623 5624 5625 5626 5627 5628 5630 5631 5632 5634 5636 5637 5639 5641 5642 5643 5645 5646 5647 5649 5651 5653 5654 5656 5658 5659 5661 5663 5665 5668 5670 5670 5671 5673 5674 5676 5678 5680 5681 5683 5684 5685 5687 5688 5690 5691 5691 5692 5694 5695 5697 5698 5700 5702 5704 5706 5708 5710 5712 5713 5714 5715 5715 5716 5717 5718 5719 5719 5720 5721
5615 5615 5615 5616 5616 5616 5616 5617 5617 5617 5617 5617 5618 5618 5618 5618 5618 5618 5619 5620 5621 5622 5624 5625 5626 5628 5629 5631 5633 5634 5636 5638 5639 5641 5642 5643 5644 5646 5648 5650 5651 5653 5655 5656 5658 5660 5662 5665 5667 5668 5668 5670 5672 5674 5676 5678 5679 5680 5681 5683 5685 5686 5688 5689 5690 5691 5692 5694 5695 5696 5698 5700 5702 5704 5706 5708 5709 5710 5711 5712 5712 5713 5715 5716 5716 5717 5718 5719
5613 5614 5614 5614 5614 5615 5615 5615 5615 5615 5615 5615 5615 5615 5615 5615 5615 5615 5616 5617 5618 5619 5620 5621 5623 5624 5626 5628 5630 5631 5633 5635 5636 5638 5640 5641 5642 5643 5645 5647 5648 5650 5652 5653 5655 5657 5659 5662 5665 5665 5666 5668 5670 5672 5674 5675 5676 5678 5679 5681 5682 5684 5686 5687 5689 5690 5691 5692 5693 5695 5696 5698 5700 5702 5703 5705 5706 5707 5709 5709 5710 5711 5712 5714 5714 5714 5716 5716
5612 5612 5612 5613 5613 5613 5613 5613 5613 5613 5613 5613 5613 5613 5613 5613 5613 5612 5612 5613 5614 5615 5616 5618 5619 5620 5622 5624 5626 5628 5630 5632 5633 5635 5637 5639 5640 5641 5643 5644 5646 5647 5649 5650 5652 5654 5657 5659 5662 5663 5664 5665 5667 5668 5671 5672 5674 5675 5677 5678 5680 5682 5684 5685 5687 5688 5688 5690 5691 5693 5694 5696 5698 5700 5701 5703 5704 5705 5706 5707 5708 5709 5710 5711 5712 5712 5713 5714
5610 5611 5611 5612 5612 5612 5611 5611 5611 5611 5611 5611 5611 5610 5610 5610 5610 5610 5609 5610 5610 5611 5612 5613 5615 5616 5618 5620 5622 5624 5627 5629 5630 5632 5634 5636 5638 5640 5641 5642 5643 5644 5646 5648 5649 5652 5654 5656 5659 5660 5661 5663 5664 5666 5669 5671 5672 5673 5675 5676 5678 5680 5681 5683 5684 5685 5686 5688 5689 5691 5692 5694 5696 5698 5699 5701 5701 5702 5704 5705 5706 5706 5708 5709 5710 5710 5710 5711
5609 5610 5610 5610 5610 5610 5610 5610 5610 5610 5609 5609 5609 5608 5608 5608 5608 5607 5607 5606 5607 5607 5608 5609 5610 5612 5614 5615 5618 5620 5622 5625 5627 5629 5631 5633 5635 5637 5638 5639 5640 5642 5643 5645 5646 5649 5651 5653 5656 5657 5658 5660 5662 5664 5666 5668 5669 5671 5673 5674 5676 5677 5679 5680 5681 5683 5684 5686 5687 5688 5690 5693 5694 5696 5697 5699 5700 5701 5702 5703 5703 5704 5705 5707 5707 5707 5708 5708
5608 5608 5609 5609 5609 5609 5609 5609 5608 5608 5607 5607 5607 5606 5606 5605 5605 5605 5604 5603 5603 5603 5604 5604 5605 5607 5609 5611 5614 5616 5618 5621 5623 5626 5629 5630 5632 5635 5636 5636 5637 5639 5641 5643 5644 5646 5648 5650 5652 5654 5656 5658 5660 5662 5663 5665 5666 5668 5670 5672 5673 5675 5676 5678 5679 5680 5682 5683 5685 5686 5688 5690 5692 5694 5695 5697 5698 5699 5700 5700 5701 5702 5703 5704 5705 5705 5706 5706
5607 5607 5607 5608 5608 5607 5607 5607 5606 5606 5605 5605 5604 5604 5603 5603 5602 5602 5601 5599 5599 5599 5599 5600 5601 5603 5605 5607 5609 5612 5615 5617 5619 5622 5625 5627 5630 5632 5632 5632 5635 5637 5639 5641 5642 5643 5645 5646 5649 5651 5653 5654 5657 5659 5660 5662 5663 5665 5667 5669 5670 5672 5673 5675 5676 5678 5679 5680 5682 5684 5685 5687 5689 5691 5693 5694 5696 5697 5697 5698 5699 5700 5701 5702 5703 5704 5704 5704
5606 5606 5606 5606 5606 5606 5606 5605 5605 5604 5603 5602 5602 5601 5601 5600 5599 5598 5597 5596 5595 5594 5595 5596 5597 5599 5601 5603 5605 5608 5611 5613 5615 5618 5621 5623 5625 5628 5629 5629 5632 5635 5637 5639 5640 5641 5642 5643 5645 5647 5649 5651 5653 5655 5656 5658 5660 5662 5664 5665 5667 5669 5670 5672 5673 5675 5676 5678 5679 5681 5683 5684 5687 5688 5690 5692 5693 5694 5695 5696 5697 5698 5699 5700 5701 5702 5702 5702
5605 5605 5605 5605 5605 5605 5605 5604 5603 5603 5602 5601 5600 5600 5599 5598 5597 5595 5594 5593 5591 5590 5591 5592 5594 5596 5598 5599 5602 5604 5607 5609 5612 5614 5617 5620 5622 5624 5626 5627 5629 5632 5635 5636 5638 5639 5641 5641 5642 5644 5646 5647 5649 5651 5652 5654 5656 5658 5660 5662 5664 5665 5667 5668 5670 5672 5673 5675 5676 5678 5680 5681 5683 5685 5687 5689 5691 5692 5693 5694 5695 5695 5696 5698 5699 5700 5701 5701
5604 5604 5604 5604 5604 5604 5603 5603 5602 5601 5600 5599 5598 5598 5597 5596 5594 5593 5592 5590 5589 5588 5588 5590 5591 5593 5595 5597 5599 5601 5603 5605 5608 5611 5614 5618 5619 5620 5623 5625 5627 5630 5632 5634 5635 5637 5638 5639 5640 5641 5642 5644 5645 5647 5648 5649 5652 5654 5656 5658 5660 5662 5663 5665 5666 5668 5670 5672 5673 5675 5677 5678 5680 5682 5684 5686 5687 5689 5690 5691 5692 5693 5694 5695 5696 5698 5699 5699
5603 5603 5603 5603 5603 5603 5602 5601 5600 5600 5599 5598 5597 5596 5595 5594 5593 5591 5590 5589 5588 5587 5587 5588 5589 5591 5593 5595 5596 5598 5600 5602 5604 5607 5611 5614 5615 5617 5620 5623 5625 5628 5630 5631 5632 5634 5635 5636 5637 5638 5640 5641 5642 5643 5644 5646 5648 5650 5652 5654 5656 5658 5660 5661 5663 5665 5667 5669 5670 5671 5673 5675 5677 5678 5680 5682 5683 5685 5687 5688 5690 5691 5692 5693 5694 5695 5696 5697